Hourly Weather Glasgow

Today, 29 October, Thursday

Time Temperature Precipitation Wind Pressure Humidity
00:00 +3°C° 0 mm 6 mps 744 mmHg 92%
01:00 +3°C° 0 mm 6 mps 745 mmHg 91%
02:00 +4°C° 0 mm 6 mps 745 mmHg 90%
03:00 +4°C° 0 mm 6 mps 746 mmHg 88%
04:00 +5°C° 0 mm 5 mps 747 mmHg 89%
05:00 +3°C° 0 mm 5 mps 747 mmHg 89%
06:00 +3°C° 0 mm 5 mps 748 mmHg 90%
07:00 +3°C° 0 mm 5 mps 749 mmHg 89%
08:00 +5°C° 0 mm 5 mps 749 mmHg 87%
09:00 +5°C° 0 mm 4 mps 750 mmHg 86%
10:00 +6°C° 0 mm 5 mps 750 mmHg 83%
11:00 +7°C° 0 mm 6 mps 749 mmHg 79%
12:00 +8°C° 0 mm 7 mps 749 mmHg 76%
13:00 +6°C° 0.4 mm 7 mps 749 mmHg 82%
14:00 +6°C° 0.4 mm 8 mps 748 mmHg 88%
15:00 +6°C° 0.4 mm 8 mps 748 mmHg 94%
16:00 +6°C° 0.5 mm 8 mps 747 mmHg 95%
17:00 +7°C° 0.5 mm 8 mps 746 mmHg 96%
18:00 +7°C° 0.5 mm 8 mps 745 mmHg 97%
19:00 +8°C° 0.3 mm 7 mps 745 mmHg 97%
20:00 +8°C° 0.3 mm 6 mps 745 mmHg 97%
21:00 +9°C° 0.3 mm 5 mps 745 mmHg 97%
22:00 +9°C° 0 mm 6 mps 745 mmHg 96%
23:00 +10°C° 0 mm 6 mps 745 mmHg 95%

Tomorrow, 30 October, Friday

Time Temperature Precipitation Wind Pressure Humidity
00:00 +10°C° 0 mm 7 mps 745 mmHg 94%
01:00 +11°C° 0 mm 7 mps 745 mmHg 94%
02:00 +11°C° 0 mm 7 mps 745 mmHg 93%
03:00 +12°C° 0 mm 8 mps 746 mmHg 92%
04:00 +12°C° 0.2 mm 8 mps 746 mmHg 93%
05:00 +12°C° 0.2 mm 8 mps 746 mmHg 94%
06:00 +12°C° 0.2 mm 8 mps 746 mmHg 95%
07:00 +12°C° 0 mm 7 mps 747 mmHg 94%
08:00 +12°C° 0 mm 7 mps 748 mmHg 93%
09:00 +13°C° 0 mm 6 mps 749 mmHg 92%
10:00 +13°C° 0 mm 6 mps 750 mmHg 86%
11:00 +13°C° 0 mm 5 mps 750 mmHg 79%
12:00 +13°C° 0 mm 4 mps 751 mmHg 73%
13:00 +13°C° 0 mm 4 mps 752 mmHg 74%
14:00 +12°C° 0 mm 3 mps 753 mmHg 75%
15:00 +13°C° 0 mm 2 mps 754 mmHg 76%
16:00 +10°C° 0 mm 2 mps 754 mmHg 78%
17:00 +9°C° 0 mm 2 mps 755 mmHg 81%
18:00 +8°C° 0 mm 2 mps 755 mmHg 84%
19:00 +7°C° 0 mm 2 mps 756 mmHg 83%
20:00 +7°C° 0 mm 2 mps 756 mmHg 82%
21:00 +7°C° 0 mm 1 mps 757 mmHg 81%
22:00 +7°C° 0 mm 1 mps 757 mmHg 80%
23:00 +7°C° 0 mm 1 mps 757 mmHg 79%

Day after tomorrow, 31 October, Saturday

Time Temperature Precipitation Wind Pressure Humidity
00:00 +6°C° 0 mm 2 mps 757 mmHg 78%
01:00 +7°C° 0 mm 1 mps 757 mmHg 78%
02:00 +7°C° 0 mm 1 mps 757 mmHg 77%
03:00 +7°C° 0 mm 1 mps 757 mmHg 77%
04:00 +6°C° 0 mm 1 mps 756 mmHg 78%
05:00 +6°C° 0 mm 1 mps 756 mmHg 79%
06:00 +6°C° 0 mm 1 mps 755 mmHg 80%
07:00 +7°C° 0 mm 1 mps 754 mmHg 81%
08:00 +7°C° 0 mm 2 mps 753 mmHg 81%
09:00 +8°C° 0 mm 3 mps 752 mmHg 82%
10:00 +7°C° 0.6 mm 3 mps 751 mmHg 86%
11:00 +7°C° 0.6 mm 3 mps 749 mmHg 90%
12:00 +7°C° 0.6 mm 3 mps 748 mmHg 94%
13:00 +6°C° 1.1 mm 4 mps 747 mmHg 95%
14:00 +6°C° 1.1 mm 4 mps 745 mmHg 96%
15:00 +6°C° 1.1 mm 4 mps 744 mmHg 97%
16:00 +6°C° 0 mm 5 mps 744 mmHg 97%
17:00 +4°C° 0 mm 6 mps 744 mmHg 96%
18:00 +4°C° 0 mm 7 mps 744 mmHg 95%
19:00 +4°C° 0 mm 7 mps 744 mmHg 94%
20:00 +5°C° 0 mm 8 mps 744 mmHg 93%
21:00 +5°C° 0 mm 8 mps 744 mmHg 92%
22:00 +5°C° 0 mm 8 mps 743 mmHg 91%
23:00 +5°C° 0 mm 8 mps 743 mmHg 91%

1 November, Sunday

Time Temperature Precipitation Wind Pressure Humidity
00:00 +5°C° 0 mm 8 mps 743 mmHg 90%
01:00 +5°C° 0 mm 8 mps 742 mmHg 90%
02:00 +5°C° 0 mm 7 mps 741 mmHg 90%
03:00 +5°C° 0 mm 7 mps 739 mmHg 90%
04:00 +6°C° 0.4 mm 5 mps 738 mmHg 92%
05:00 +6°C° 0.4 mm 4 mps 736 mmHg 94%
06:00 +7°C° 0.4 mm 3 mps 735 mmHg 96%
07:00 +6°C° 0.9 mm 4 mps 734 mmHg 96%
08:00 +7°C° 0.9 mm 4 mps 733 mmHg 97%
09:00 +7°C° 0.9 mm 5 mps 732 mmHg 98%
10:00 +7°C° 0.6 mm 8 mps 732 mmHg 90%
11:00 +7°C° 0.6 mm 10 mps 733 mmHg 81%
12:00 +8°C° 0.6 mm 12 mps 733 mmHg 73%
13:00 +7°C° 0 mm 12 mps 734 mmHg 73%
14:00 +7°C° 0 mm 12 mps 735 mmHg 73%
15:00 +5°C° 0 mm 12 mps 736 mmHg 73%
16:00 +5°C° 0 mm 12 mps 736 mmHg 74%
17:00 +5°C° 0 mm 12 mps 737 mmHg 75%
18:00 +4°C° 0 mm 12 mps 738 mmHg 75%
19:00 +4°C° 0 mm 11 mps 739 mmHg 76%
20:00 +3°C° 0 mm 9 mps 739 mmHg 77%
21:00 +4°C° 0 mm 8 mps 739 mmHg 78%
22:00 +4°C° 0 mm 8 mps 739 mmHg 81%
23:00 +4°C° 0 mm 7 mps 739 mmHg 84%

2 November, Monday

Time Temperature Precipitation Wind Pressure Humidity
00:00 +3°C° 0 mm 7 mps 739 mmHg 87%
01:00 +4°C° 0.1 mm 6 mps 738 mmHg 88%
02:00 +5°C° 0.1 mm 5 mps 737 mmHg 89%
03:00 +5°C° 0.1 mm 4 mps 737 mmHg 90%
04:00 +5°C° 0.2 mm 3 mps 737 mmHg 92%
05:00 +5°C° 0.2 mm 3 mps 736 mmHg 93%
06:00 +5°C° 0.2 mm 3 mps 736 mmHg 95%
07:00 +5°C° 0 mm 4 mps 736 mmHg 94%
08:00 +6°C° 0 mm 5 mps 736 mmHg 93%
09:00 +5°C° 0 mm 6 mps 737 mmHg 92%
10:00 +5°C° 0 mm 6 mps 737 mmHg 86%
11:00 +6°C° 0 mm 7 mps 737 mmHg 81%
12:00 +7°C° 0 mm 8 mps 738 mmHg 75%
13:00 +7°C° 0 mm 8 mps 738 mmHg 77%
14:00 +7°C° 0 mm 8 mps 738 mmHg 78%
15:00 +7°C° 0 mm 8 mps 738 mmHg 79%
16:00 +6°C° 0.1 mm 8 mps 739 mmHg 81%
17:00 +6°C° 0.1 mm 8 mps 739 mmHg 83%
18:00 +6°C° 0.1 mm 8 mps 739 mmHg 85%
19:00 +5°C° 0.1 mm 8 mps 739 mmHg 86%
20:00 +5°C° 0.1 mm 8 mps 740 mmHg 86%
21:00 +5°C° 0.1 mm 8 mps 740 mmHg 87%
22:00 +5°C° 0.2 mm 7 mps 740 mmHg 88%
23:00 +5°C° 0.2 mm 6 mps 740 mmHg 89%

3 November, Tuesday

Time Temperature Precipitation Wind Pressure Humidity
00:00 +5°C° 0.2 mm 6 mps 741 mmHg 90%
01:00 +5°C° 0.4 mm 6 mps 742 mmHg 91%
02:00 +5°C° 0.4 mm 6 mps 742 mmHg 91%
03:00 +5°C° 0.4 mm 6 mps 743 mmHg 92%
04:00 +5°C° 0.1 mm 7 mps 745 mmHg 91%
05:00 +5°C° 0.1 mm 8 mps 746 mmHg 90%
06:00 +5°C° 0.1 mm 9 mps 748 mmHg 89%
07:00 +5°C° 0.3 mm 9 mps 750 mmHg 87%
08:00 +5°C° 0.3 mm 9 mps 752 mmHg 84%
09:00 +5°C° 0.3 mm 9 mps 754 mmHg 81%
10:00 +5°C° 0 mm 9 mps 755 mmHg 79%
11:00 +6°C° 0 mm 8 mps 757 mmHg 77%
12:00 +6°C° 0 mm 8 mps 759 mmHg 74%
13:00 +6°C° 0 mm 7 mps 760 mmHg 76%
14:00 +6°C° 0 mm 7 mps 761 mmHg 77%
15:00 +5°C° 0 mm 6 mps 762 mmHg 78%
16:00 +4°C° 0 mm 6 mps 764 mmHg 81%
17:00 +3°C° 0 mm 5 mps 765 mmHg 85%
18:00 +2°C° 0 mm 5 mps 766 mmHg 88%
19:00 +2°C° 0 mm 5 mps 767 mmHg 87%
20:00 +2°C° 0 mm 5 mps 768 mmHg 87%
21:00 +2°C° 0 mm 5 mps 769 mmHg 86%
22:00 +1°C° 0 mm 5 mps 770 mmHg 87%
23:00 +1°C° 0 mm 5 mps 770 mmHg 87%
Show more